Location: Sungai Bunut
(2.6333°N, 113.7333°E)
Time: 08:59:22
(UTC+00:00)

Courier 1B - Pass Details

Date: 05 December 2023
Orbit: 962 x 1209 km, 28.3° (Epoch: 03 March)

Event Time Altitude Azimuth Distance (km) Brightness Sun altitude
Rises 21:11:58 0° 236° (SW) 4,073 10.4 -15.7°
Reaches altitude 10° 21:14:53 10° 234° (SW) 3,086 9.8 -15.1°
Maximum altitude 21:22:31 73° 150° (SSE) 1,174 8.1 -13.3°
Drops below altitude 10° 21:29:41 10° 66° (ENE) 2,909 10.6 -11.6°
Sets 21:32:21 0° 64° (ENE) 3,827 11.3 -11.0°
